This is the latest recevied weather packets stored in our database for station/object W1REE. If no packets are shown the sender has not sent any weather packets the latest 10 day(s).
| Time | Temp. | Humidity | Pressure | Rain* | Wind** | Luminosity | Snow |
|---|---|---|---|---|---|---|---|
| 1778017170 | 3.33° C | 96% | 1013.3 hPa | 0 mm | - | 105 W/m² | - |
| 1778016868 | 3.33° C | 96% | 1013 hPa | 0 mm | - | 86 W/m² | - |
| 1778016563 | 3.33° C | 96% | 1013.1 hPa | 0 mm | - | 101 W/m² | - |
| 1778016261 | 3.33° C | 96% | 1013.1 hPa | 0 mm | - | 133 W/m² | - |
| 1778015957 | 3.33° C | 95% | 1013.3 hPa | 0 mm | - | 103 W/m² | - |
| 1778015655 | 3.33° C | 96% | 1013.4 hPa | 0 mm | - | 101 W/m² | - |
| 1778015351 | 3.33° C | 95% | 1013.5 hPa | 0 mm | - | 62 W/m² | - |
| 1778015048 | 3.89° C | 96% | 1013.4 hPa | 0 mm | - | 123 W/m² | - |
| 1778014745 | 3.89° C | 95% | 1013.6 hPa | 0 mm | - | 89 W/m² | - |
| 1778014443 | 3.89° C | 96% | 1013.7 hPa | 0 mm | - | 148 W/m² | - |
| 1778014139 | 3.89° C | 95% | 1013.7 hPa | 0 mm | - | 150 W/m² | - |
| 1778013837 | 3.89° C | 96% | 1013.7 hPa | 0 mm | - | 150 W/m² | - |
| 1778013534 | 3.33° C | 95% | 1013.6 hPa | 1.78 mm | - | 154 W/m² | - |
| 1778013231 | 3.89° C | 95% | 1013.6 hPa | 1.78 mm | - | 207 W/m² | - |
| 1778012927 | 3.89° C | 96% | 1013.9 hPa | 0 mm | - | 134 W/m² | - |
| 1778012623 | 3.89° C | 96% | 1013.7 hPa | 0 mm | - | 206 W/m² | - |
| 1778012320 | 3.33° C | 95% | 1014.1 hPa | 0 mm | - | 185 W/m² | - |
| 1778012018 | 3.33° C | 95% | 1014.1 hPa | 1.27 mm | - | 99 W/m² | - |
| 1778011716 | 3.89° C | 95% | 1014.2 hPa | 1.27 mm | - | 119 W/m² | - |
| 1778011412 | 3.89° C | 95% | 1014 hPa | 0 mm | - | 138 W/m² | - |
| 1778011108 | 3.89° C | 95% | 1014.2 hPa | 0 mm | - | 92 W/m² | - |
| 1778010805 | 3.89° C | 95% | 1014.2 hPa | 1.78 mm | - | 149 W/m² | - |
| 1778010502 | 3.89° C | 95% | 1014.4 hPa | 1.78 mm | - | 200 W/m² | - |
| 1778010200 | 3.89° C | 95% | 1014.5 hPa | 0 mm | - | 176 W/m² | - |
| 1778009894 | 3.89° C | 95% | 1014.4 hPa | 0 mm | - | 238 W/m² | - |
* Rain latest hour (hover to see other rain measurements)
** Current wind speed in m/s (hover to see current wind gust speed)